SL-16 DEB, 22509

Orbit data source: Space-Track

SL-16 DEB, 22509 is space debris in LEO originally from a launch on Fri, 25 Dec 1992 UTC launched from the Tyuratam Missile And Space Complex (TTMTR). Debris objects in space refer to the collection of defunct objects orbiting the Earth. Examples of debris include non-operational satellites, rocket bodies, and fragments generated from explosions, collisions, or faulty payload assembly.

Loading next visibility...
Identifier
22509, 1992-093GU
Orbit
LEO
Country
Flag of CISCIS
Related business
Manufacturer
Unknown
Mission
Spacecraft
Bus & Motor
Unknown
Mass
Unknown
Launch date (UTC)
1992-12-25 (33 years ago)
Launch vehicle
Unknown
Launch site
Tyuratam Missile And Space Complex (TTMTR)
Object type
Payload
Rocket body
Debris
Shape & HBR
Unknown shape, 0.1 m
Radar Cross Section
Small (<0.1 m²)

Expand to show TLE details & history
Last TLE update: 1 day ago

TLE from 1 day ago
0 SL-16 DEB
1 22509U 92093GU  25349.42362825  .00002107  00000-0  86430-3 0  9990
2 22509  71.1293 338.8312 0100946  49.2034  76.4769 14.25453167689249
Epoch: 2025-12-15T10:10Z
TLE epoch observation values (Epoch: 2025-12-15T10:10:01.480Z)
Latitude
49.36434°
Longitude
-101.33648°
Altitude
797.981 km
Speed
7.468 km/s
True Right ascension
09h 01m 58s
True Declination
49° 11' 43"
Sunlit
Object was in full shadow at epoch
Visualization orbit readout
Latitude
Unknown
Longitude
Unknown
Altitude
Unknown
Speed
Unknown
Apparent Right ascension
Unknown
Apparent Declination
Unknown
Sunlit
N/A
Visualization observer readout
Local Sidereal Time
18:33:41
Azimuth
Unknown
Elevation
Unknown
Doppler factor
Unknown
Orbital elements
Apogee altitude
877.381 km
Perigee altitude
732.361 km
Semi-major axis
7,183.008 km
Eccentricity
0.01009
Inclination
71.1293°
RAAN
338.8312°
Arg. of periapsis
49.2034°
True anomaly
77.60484°
Mean anomaly
76.4769°
Eccentric anomaly
77.04055°
Mean motion
3.5652 °/min
Orbital period
100.98 mins
BSTAR
0.0008643
Loading maneuver chart data...
Computing Atmospheric mass density...
Loading historical data...
Loading historical data...
Loading historical data...
Loading historical data...
Loading historical data...
Loading historical data...
Loading historical data...

Documentation

Showing up to 5 results
|